Troy, AL

8:03 AM CDT on September 24, 2017 (GMT -0500)
Troy Municipal

Weather History for KTOI - December, 2012

Change the Weather History Date:

Thursday, December 6, 2012

  Actual Average Record
Temperature  
Mean Temperature 61 °F 50 °F  
Max Temperature 76 °F 62 °F 83 °F (2013)
Min Temperature 45 °F 38 °F 26 °F (2006)
Degree Days  
Heating Degree Days 4 15  
Month to date heating degree days 32 87  
Since 1 July heating degree days 500 480  
Growing Degree Days 9 (Base 50)    
Moisture  
Dew Point 51 °F    
Average Humidity 72    
Maximum Humidity 100    
Minimum Humidity 44    
Precipitation  
Precipitation 0.00 in 0.18 in 0.79 in (2011)
Month to date precipitation 0.00 1.04  
Year to date precipitation 51.25 50.82  
Snow  
Snow 0.00 in - - ()
Month to date snowfall 0.0  
Since 1 July snowfall 0.0  
Snow Depth 0.00 in    
Sea Level Pressure  
Sea Level Pressure 30.05 in    
Wind  
Wind Speed 4 mph (East)    
Max Wind Speed 13 mph    
Max Gust Speed 17 mph    
Visibility 9 miles    
Events      
T = Trace of Precipitation, MM = Missing Value Source: NWS Daily Summary

Daily Weather History Graph

Daily Weather History Graph

Search for Another Location

Airport or City:

Trip Planner

Search our weather history database for the weather conditions in past years. The results will help you decide how hot, cold, wet, or windy it might be!

Date:

Astronomy

Dec. 06, 2012 Rise Set
Actual Time 6:30 AM CST 4:39 PM CST
Civil Twilight 6:03 AM CST 5:06 PM CST
Nautical Twilight 5:33 AM CST 5:36 PM CST
Astronomical Twilight 5:04 AM CST 6:06 PM CST
Moon No Moon Rise 11:43 AM CST (12/6)
Length of Visible Light 11h 02m
Length of Day
10h 09m
Waning Gibbous, 49% of the Moon is Illuminated
Dec 6
Waning Gibbous
Dec 13
New
Dec 19
First Quarter
Dec 28
Full
Jan 4
Last Quarter

Hourly Weather History & Observations

Time (CST) Temp. Dew Point Humidity Pressure Visibility Wind Dir Wind Speed Gust Speed Precip Events Conditions
12:53 AM 48.9 °F 46.9 °F 93% 30.07 in 10.0 mi Calm Calm - N/A   Clear
1:53 AM 48.0 °F 46.0 °F 93% 30.07 in 10.0 mi Calm Calm - N/A   Clear
2:53 AM 48.0 °F 45.0 °F 89% 30.06 in 10.0 mi Calm Calm - N/A   Clear
3:53 AM 45.0 °F 44.1 °F 97% 30.07 in 10.0 mi Calm Calm - N/A   Mostly Cloudy
4:53 AM 46.0 °F 44.1 °F 93% 30.08 in 10.0 mi Calm Calm - N/A   Clear
5:53 AM 46.0 °F 44.1 °F 93% 30.09 in 10.0 mi Calm Calm - N/A   Mostly Cloudy
6:53 AM 50.0 °F 46.9 °F 89% 30.09 in 9.0 mi Calm Calm - N/A   Clear
7:53 AM 55.0 °F 52.0 °F 89% 30.10 in 10.0 mi Calm Calm - N/A   Clear
8:53 AM 62.1 °F 53.1 °F 72% 30.11 in 10.0 mi Calm Calm - N/A   Clear
9:53 AM 69.1 °F 54.0 °F 58% 30.10 in 10.0 mi Variable 3.5 mph - N/A   Clear
10:53 AM 72.0 °F 52.0 °F 49% 30.07 in 10.0 mi SSE 4.6 mph - N/A   Mostly Cloudy
11:53 AM 73.9 °F 50.0 °F 43% 30.04 in 10.0 mi East 8.1 mph - N/A   Partly Cloudy
12:53 PM 73.9 °F 50.0 °F 43% 30.01 in 10.0 mi ESE 11.5 mph - N/A   Partly Cloudy
1:53 PM 72.0 °F 50.0 °F 46% 30.01 in 10.0 mi ESE 10.4 mph - N/A   Overcast
2:53 PM 73.9 °F 50.0 °F 43% 30.01 in 10.0 mi East 9.2 mph - N/A   Mostly Cloudy
3:53 PM 71.1 °F 52.0 °F 51% 30.01 in 10.0 mi East 8.1 mph - N/A   Scattered Clouds
4:53 PM 66.9 °F 54.0 °F 63% 30.02 in 10.0 mi East 5.8 mph - N/A   Clear
5:53 PM 63.0 °F 54.0 °F 72% 30.02 in 10.0 mi East 4.6 mph - N/A   Clear
6:53 PM 61.0 °F 55.0 °F 81% 30.04 in 10.0 mi ENE 5.8 mph - N/A   Clear
7:53 PM 60.1 °F 55.0 °F 83% 30.05 in 10.0 mi ENE 4.6 mph - N/A   Clear
8:53 PM 59.0 °F 54.0 °F 83% 30.04 in 10.0 mi ENE 4.6 mph - N/A   Clear
9:53 PM 57.9 °F 53.1 °F 84% 30.06 in 8.0 mi ENE 4.6 mph - N/A   Clear
10:53 PM 57.0 °F 53.1 °F 87% 30.04 in 6.0 mi East 5.8 mph - N/A   Clear
11:50 PM 57.2 °F 53.6 °F 88% 30.04 in 5.0 mi Variable 5.8 mph - N/A   Mostly Cloudy
11:53 PM 57.9 °F 54.0 °F 87% 30.04 in 5.0 mi Variable 4.6 mph - N/A   Mostly Cloudy